Time,TemperatureF,DewpointF,PressureIn,WindDirection,WindDirectionDegrees,WindSpeedMPH,WindSpeedGustMPH,Humidity,HourlyPrecipIn,Conditions,Clouds,dailyrainin,SoftwareType,DateUTC
2013-03-21 00:00:00,23.9,18.6,29.84,WSW,252,2.0,2.0,80,0.00,,,0.05,Wunderground v.1.15,2013-03-21 04:00:00,
2013-03-21 00:05:00,23.8,18.8,29.83,WSW,252,2.0,2.0,81,0.00,,,0.00,Wunderground v.1.15,2013-03-21 04:05:00,
2013-03-21 00:10:00,23.7,18.7,29.83,WSW,252,2.0,2.0,81,0.00,,,0.00,Wunderground v.1.15,2013-03-21 04:10:00,
2013-03-21 00:20:00,23.4,18.7,29.83,WSW,252,2.0,3.0,82,0.00,,,0.00,Wunderground v.1.15,2013-03-21 04:20:00,
2013-03-21 00:30:00,23.2,18.5,29.83,WSW,252,2.0,2.0,82,0.00,,,0.00,Wunderground v.1.15,2013-03-21 04:30:00,
2013-03-21 00:40:00,23.0,18.6,29.83,WSW,252,2.0,2.0,83,0.00,,,0.00,Wunderground v.1.15,2013-03-21 04:40:00,
2013-03-21 00:45:00,22.9,18.5,29.83,WSW,252,2.0,3.0,83,0.00,,,0.00,Wunderground v.1.15,2013-03-21 04:45:00,
2013-03-21 00:55:00,22.8,18.4,29.83,WSW,250,3.0,4.0,83,0.00,,,0.00,Wunderground v.1.15,2013-03-21 04:55:00,
2013-03-21 01:05:00,22.7,18.0,29.83,WSW,245,3.0,3.0,82,0.00,,,0.00,Wunderground v.1.15,2013-03-21 05:05:00,
2013-03-21 01:10:00,22.6,17.9,29.83,WSW,245,3.0,3.0,82,0.00,,,0.00,Wunderground v.1.15,2013-03-21 05:10:00,
2013-03-21 01:20:00,22.5,17.8,29.83,WSW,246,2.0,2.0,82,0.00,,,0.00,Wunderground v.1.15,2013-03-21 05:20:00,
2013-03-21 01:30:00,22.4,17.7,29.83,WSW,245,2.0,4.0,82,0.00,,,0.00,Wunderground v.1.15,2013-03-21 05:30:00,
2013-03-21 01:35:00,22.4,17.5,29.83,WSW,246,2.0,4.0,81,0.00,,,0.00,Wunderground v.1.15,2013-03-21 05:35:00,
2013-03-21 01:45:00,22.3,17.4,29.83,WSW,245,2.0,2.0,81,0.00,,,0.00,Wunderground v.1.15,2013-03-21 05:45:00,
2013-03-21 01:50:00,22.2,17.3,29.83,WSW,245,3.0,3.0,81,0.00,,,0.00,Wunderground v.1.15,2013-03-21 05:50:00,
2013-03-21 02:00:00,22.2,17.0,29.83,WSW,245,2.0,2.0,80,0.00,,,0.00,Wunderground v.1.15,2013-03-21 06:00:00,
2013-03-21 02:05:00,22.2,17.0,29.83,WSW,243,1.0,2.0,80,0.00,,,0.00,Wunderground v.1.15,2013-03-21 06:05:00,
2013-03-21 02:15:00,22.1,16.9,29.83,SW,226,3.0,5.0,80,0.00,,,0.00,Wunderground v.1.15,2013-03-21 06:15:00,
2013-03-21 02:25:00,22.0,16.8,29.83,SW,227,2.0,2.0,80,0.00,,,0.00,Wunderground v.1.15,2013-03-21 06:25:00,
2013-03-21 02:30:00,22.0,17.1,29.83,SW,227,2.0,2.0,81,0.00,,,0.00,Wunderground v.1.15,2013-03-21 06:30:00,
2013-03-21 02:40:00,22.0,17.1,29.83,SW,227,2.0,2.0,81,0.00,,,0.00,Wunderground v.1.15,2013-03-21 06:40:00,
2013-03-21 02:45:00,21.9,17.0,29.82,SW,227,2.0,2.0,81,0.00,,,0.00,Wunderground v.1.15,2013-03-21 06:45:00,
2013-03-21 02:55:00,21.7,16.8,29.82,SW,227,1.0,4.0,81,0.00,,,0.00,Wunderground v.1.15,2013-03-21 06:55:00,
2013-03-21 03:05:00,21.6,17.0,29.82,SW,226,3.0,3.0,82,0.00,,,0.00,Wunderground v.1.15,2013-03-21 07:05:00,
2013-03-21 03:10:00,21.5,16.9,29.82,SW,226,3.0,3.0,82,0.00,,,0.00,Wunderground v.1.15,2013-03-21 07:10:00,
2013-03-21 03:20:00,21.4,17.0,29.81,SW,226,2.0,2.0,83,0.00,,,0.00,Wunderground v.1.15,2013-03-21 07:20:00,
2013-03-21 03:30:00,21.3,16.9,29.81,SW,226,2.0,2.0,83,0.00,,,0.00,Wunderground v.1.15,2013-03-21 07:30:00,
2013-03-21 03:40:00,21.1,17.0,29.81,SW,226,2.0,3.0,84,0.00,,,0.00,Wunderground v.1.15,2013-03-21 07:40:00,
2013-03-21 03:50:00,20.9,16.8,29.80,SW,226,3.0,3.0,84,0.00,,,0.00,Wunderground v.1.15,2013-03-21 07:50:00,
2013-03-21 04:00:00,20.7,16.6,29.80,SW,226,2.0,2.0,84,0.00,,,0.00,Wunderground v.1.15,2013-03-21 08:00:00,
2013-03-21 04:10:00,20.5,16.4,29.80,SW,226,2.0,3.0,84,0.00,,,0.00,Wunderground v.1.15,2013-03-21 08:10:00,
2013-03-21 04:20:00,20.3,16.2,29.80,SW,225,2.0,2.0,84,0.00,,,0.00,Wunderground v.1.15,2013-03-21 08:20:00,
2013-03-21 04:25:00,20.3,16.2,29.80,SW,225,2.0,3.0,84,0.00,,,0.00,Wunderground v.1.15,2013-03-21 08:25:00,
2013-03-21 04:35:00,20.2,16.1,29.80,SW,225,2.0,3.0,84,0.00,,,0.00,Wunderground v.1.15,2013-03-21 08:35:00,
2013-03-21 04:45:00,20.0,15.9,29.80,SW,225,3.0,3.0,84,0.00,,,0.00,Wunderground v.1.15,2013-03-21 08:45:00,
2013-03-21 04:55:00,20.0,15.9,29.80,SW,223,3.0,5.0,84,0.00,,,0.00,Wunderground v.1.15,2013-03-21 08:55:00,
2013-03-21 05:00:00,19.9,15.8,29.80,SW,223,3.0,3.0,84,0.00,,,0.00,Wunderground v.1.15,2013-03-21 09:00:00,
2013-03-21 05:10:00,19.7,15.4,29.80,SW,223,2.0,2.0,83,0.00,,,0.00,Wunderground v.1.15,2013-03-21 09:10:00,
2013-03-21 05:20:00,19.7,15.4,29.80,SW,223,2.0,2.0,83,0.00,,,0.00,Wunderground v.1.15,2013-03-21 09:20:00,
2013-03-21 05:30:00,19.7,15.4,29.80,SW,223,3.0,3.0,83,0.00,,,0.00,Wunderground v.1.15,2013-03-21 09:30:00,
2013-03-21 05:40:00,19.7,15.4,29.79,SW,223,2.0,2.0,83,0.00,,,0.00,Wunderground v.1.15,2013-03-21 09:40:00,
2013-03-21 05:50:00,19.6,15.3,29.79,SW,223,2.0,4.0,83,0.00,,,0.00,Wunderground v.1.15,2013-03-21 09:50:00,
2013-03-21 06:00:00,19.6,15.3,29.79,SW,223,2.0,2.0,83,0.00,,,0.00,Wunderground v.1.15,2013-03-21 10:00:00,
2013-03-21 06:10:00,19.5,15.2,29.79,SW,223,2.0,4.0,83,0.00,,,0.00,Wunderground v.1.15,2013-03-21 10:10:00,
2013-03-21 06:20:00,19.3,15.0,29.80,SW,223,2.0,2.0,83,0.00,,,0.00,Wunderground v.1.15,2013-03-21 10:20:00,
2013-03-21 06:25:00,19.3,15.0,29.80,SW,226,2.0,3.0,83,0.00,,,0.00,Wunderground v.1.15,2013-03-21 10:25:00,
2013-03-21 06:35:00,19.3,15.0,29.80,SW,234,3.0,3.0,83,0.00,,,0.00,Wunderground v.1.15,2013-03-21 10:35:00,
2013-03-21 06:40:00,19.3,15.0,29.80,SW,234,2.0,3.0,83,0.00,,,0.00,Wunderground v.1.15,2013-03-21 10:40:00,
2013-03-21 06:50:00,19.1,14.8,29.79,SW,236,2.0,2.0,83,0.00,,,0.00,Wunderground v.1.15,2013-03-21 10:50:00,
2013-03-21 07:00:00,19.3,15.0,29.79,WSW,240,3.0,3.0,83,0.00,,,0.00,Wunderground v.1.15,2013-03-21 11:00:00,
2013-03-21 07:10:00,19.3,15.0,29.80,WSW,238,3.0,3.0,83,0.00,,,0.00,Wunderground v.1.15,2013-03-21 11:10:00,
2013-03-21 07:20:00,19.3,15.0,29.80,WSW,237,2.0,6.0,83,0.00,,,0.00,Wunderground v.1.15,2013-03-21 11:20:00,
2013-03-21 07:30:00,19.3,15.3,29.79,WSW,238,3.0,3.0,84,0.00,,,0.00,Wunderground v.1.15,2013-03-21 11:30:00,
2013-03-21 07:40:00,19.3,15.3,29.79,WSW,253,3.0,4.0,84,0.00,,,0.00,Wunderground v.1.15,2013-03-21 11:40:00,
2013-03-21 07:50:00,19.5,15.5,29.79,WSW,238,3.0,5.0,84,0.00,,,0.00,Wunderground v.1.15,2013-03-21 11:50:00,
2013-03-21 08:00:00,19.7,15.6,29.79,SW,236,3.0,3.0,84,0.00,,,0.00,Wunderground v.1.15,2013-03-21 12:00:00,
2013-03-21 08:05:00,19.7,15.6,29.79,WSW,244,3.0,3.0,84,0.00,,,0.00,Wunderground v.1.15,2013-03-21 12:05:00,
2013-03-21 08:15:00,20.2,15.9,29.79,WSW,244,3.0,5.0,83,0.00,,,0.00,Wunderground v.1.15,2013-03-21 12:15:00,
2013-03-21 08:25:00,20.7,16.4,29.79,SW,234,3.0,4.0,83,0.00,,,0.00,Wunderground v.1.15,2013-03-21 12:25:00,
2013-03-21 08:35:00,21.2,16.6,29.79,WSW,242,4.0,6.0,82,0.00,,,0.00,Wunderground v.1.15,2013-03-21 12:35:00,
2013-03-21 08:45:00,21.5,16.6,29.79,West,260,4.0,4.0,81,0.00,,,0.00,Wunderground v.1.15,2013-03-21 12:45:00,
2013-03-21 08:50:00,21.8,16.6,29.79,WSW,256,4.0,4.0,80,0.00,,,0.00,Wunderground v.1.15,2013-03-21 12:50:00,
2013-03-21 09:00:00,22.3,16.8,29.78,SW,222,4.0,4.0,79,0.00,,,0.00,Wunderground v.1.15,2013-03-21 13:00:00,
2013-03-21 09:10:00,22.9,16.5,29.78,WSW,253,5.0,5.0,76,0.00,,,0.00,Wunderground v.1.15,2013-03-21 13:10:00,
2013-03-21 09:20:00,23.4,16.3,29.78,West,273,5.0,5.0,74,0.00,,,0.00,Wunderground v.1.15,2013-03-21 13:20:00,
2013-03-21 09:30:00,23.9,16.8,29.78,West,269,4.0,4.0,74,0.00,,,0.00,Wunderground v.1.15,2013-03-21 13:30:00,
2013-03-21 09:40:00,24.2,17.1,29.78,WSW,252,5.0,5.0,74,0.00,,,0.00,Wunderground v.1.15,2013-03-21 13:40:00,
2013-03-21 09:45:00,24.4,17.0,29.79,WNW,288,5.0,7.0,73,0.00,,,0.00,Wunderground v.1.15,2013-03-21 13:45:00,
2013-03-21 09:55:00,24.9,16.5,29.79,West,259,6.0,13.0,70,0.00,,,0.00,Wunderground v.1.15,2013-03-21 13:55:00,
2013-03-21 10:05:00,25.0,16.6,29.78,WSW,257,5.0,6.0,70,0.00,,,0.00,Wunderground v.1.15,2013-03-21 14:05:00,
2013-03-21 10:15:00,25.3,16.9,29.78,WSW,245,5.0,7.0,70,0.00,,,0.00,Wunderground v.1.15,2013-03-21 14:15:00,
2013-03-21 10:20:00,25.4,17.0,29.79,West,274,6.0,6.0,70,0.00,,,0.00,Wunderground v.1.15,2013-03-21 14:20:00,
2013-03-21 10:30:00,25.6,17.2,29.79,West,261,6.0,6.0,70,0.00,,,0.00,Wunderground v.1.15,2013-03-21 14:30:00,
2013-03-21 10:35:00,26.1,18.0,29.79,West,261,7.0,7.0,71,0.00,,,0.00,Wunderground v.1.15,2013-03-21 14:35:00,
2013-03-21 10:45:00,25.8,17.4,29.79,WSW,249,7.0,10.0,70,0.00,,,0.00,Wunderground v.1.15,2013-03-21 14:45:00,
2013-03-21 10:55:00,26.2,18.1,29.79,WNW,283,6.0,7.0,71,0.00,,,0.00,Wunderground v.1.15,2013-03-21 14:55:00,
2013-03-21 11:00:00,26.8,18.7,29.78,WSW,239,5.0,5.0,71,0.00,,,0.00,Wunderground v.1.15,2013-03-21 15:00:00,
2013-03-21 11:10:00,27.0,18.2,29.78,SSW,196,8.0,10.0,69,0.00,,,0.00,Wunderground v.1.15,2013-03-21 15:10:00,
2013-03-21 11:15:00,26.8,18.0,29.78,SW,233,8.0,10.0,69,0.00,,,0.00,Wunderground v.1.15,2013-03-21 15:15:00,
2013-03-21 11:25:00,26.9,17.4,29.78,West,266,6.0,7.0,67,0.00,,,0.00,Wunderground v.1.15,2013-03-21 15:25:00,
2013-03-21 11:35:00,26.3,16.8,29.78,West,275,5.0,6.0,67,0.00,,,0.00,Wunderground v.1.15,2013-03-21 15:35:00,
2013-03-21 11:40:00,26.0,16.5,29.78,WSW,245,7.0,9.0,67,0.00,,,0.00,Wunderground v.1.15,2013-03-21 15:40:00,
2013-03-21 11:50:00,26.0,17.6,29.78,WSW,242,6.0,6.0,70,0.00,,,0.00,Wunderground v.1.15,2013-03-21 15:50:00,
2013-03-21 12:00:00,27.4,18.6,29.78,WSW,257,6.0,6.0,69,0.00,,,0.00,Wunderground v.1.15,2013-03-21 16:00:00,
2013-03-21 12:05:00,28.2,18.6,29.77,WSW,243,5.0,6.0,67,0.00,,,0.00,Wunderground v.1.15,2013-03-21 16:05:00,
2013-03-21 12:15:00,29.2,18.5,29.77,SW,218,5.0,5.0,64,0.00,,,0.00,Wunderground v.1.15,2013-03-21 16:15:00,
2013-03-21 12:20:00,28.6,17.6,29.77,WSW,241,5.0,6.0,63,0.00,,,0.00,Wunderground v.1.15,2013-03-21 16:20:00,
2013-03-21 12:30:00,27.5,16.9,29.77,WSW,242,6.0,6.0,64,0.00,,,0.00,Wunderground v.1.15,2013-03-21 16:30:00,
2013-03-21 12:35:00,27.6,16.6,29.77,WSW,248,5.0,6.0,63,0.00,,,0.00,Wunderground v.1.15,2013-03-21 16:35:00,
2013-03-21 12:45:00,27.9,16.6,29.77,West,272,5.0,5.0,62,0.00,,,0.00,Wunderground v.1.15,2013-03-21 16:45:00,
2013-03-21 12:55:00,28.4,17.0,29.77,West,268,6.0,6.0,62,0.00,,,0.00,Wunderground v.1.15,2013-03-21 16:55:00,
2013-03-21 13:05:00,29.5,18.4,29.76,West,277,5.0,10.0,63,0.00,,,0.00,Wunderground v.1.15,2013-03-21 17:05:00,
2013-03-21 13:15:00,30.8,18.9,29.76,WSW,241,6.0,6.0,61,0.00,,,0.00,Wunderground v.1.15,2013-03-21 17:15:00,
2013-03-21 13:25:00,30.2,16.0,29.76,SW,229,7.0,11.0,55,0.00,,,0.00,Wunderground v.1.15,2013-03-21 17:25:00,
2013-03-21 13:30:00,29.7,15.9,29.76,WSW,241,7.0,7.0,56,0.00,,,0.00,Wunderground v.1.15,2013-03-21 17:30:00,
2013-03-21 13:40:00,29.9,16.1,29.76,WSW,254,6.0,6.0,56,0.00,,,0.00,Wunderground v.1.15,2013-03-21 17:40:00,
2013-03-21 13:50:00,29.2,15.4,29.75,WSW,248,6.0,7.0,56,0.00,,,0.00,Wunderground v.1.15,2013-03-21 17:50:00,
2013-03-21 14:00:00,29.4,16.8,29.75,WSW,248,5.0,8.0,59,0.00,,,0.00,Wunderground v.1.15,2013-03-21 18:00:00,
2013-03-21 14:10:00,30.1,16.3,29.75,WSW,246,8.0,8.0,56,0.00,,,0.00,Wunderground v.1.15,2013-03-21 18:10:00,
2013-03-21 14:25:00,30.1,16.7,29.75,WNW,284,6.0,9.0,57,0.00,,,0.00,Wunderground v.1.15,2013-03-21 18:25:00,
2013-03-21 14:35:00,30.1,17.5,29.75,WSW,250,8.0,8.0,59,0.00,,,0.00,Wunderground v.1.15,2013-03-21 18:35:00,
2013-03-21 14:45:00,30.1,16.7,29.74,West,262,7.0,7.0,57,0.00,,,0.01,Wunderground v.1.15,2013-03-21 18:45:00,
2013-03-21 14:50:00,30.2,17.6,29.74,SSW,209,8.0,12.0,59,0.00,,,0.01,Wunderground v.1.15,2013-03-21 18:50:00,
2013-03-21 15:00:00,30.1,17.5,29.74,SW,234,8.0,8.0,59,0.00,,,0.01,Wunderground v.1.15,2013-03-21 19:00:00,
2013-03-21 15:05:00,29.9,17.7,29.74,WSW,248,8.0,8.0,60,0.00,,,0.01,Wunderground v.1.15,2013-03-21 19:05:00,
2013-03-21 15:15:00,29.7,17.5,29.74,SW,228,6.0,9.0,60,0.00,,,0.01,Wunderground v.1.15,2013-03-21 19:15:00,
2013-03-21 15:20:00,29.7,17.9,29.74,SW,236,6.0,7.0,61,0.00,,,0.01,Wunderground v.1.15,2013-03-21 19:20:00,
2013-03-21 15:30:00,29.2,17.8,29.74,WSW,242,7.0,9.0,62,0.00,,,0.01,Wunderground v.1.15,2013-03-21 19:30:00,
2013-03-21 15:40:00,29.8,19.5,29.74,WSW,248,7.0,9.0,65,0.00,,,0.01,Wunderground v.1.15,2013-03-21 19:40:00,
2013-03-21 15:50:00,29.8,19.5,29.74,WSW,248,6.0,6.0,65,0.00,,,0.01,Wunderground v.1.15,2013-03-21 19:50:00,
2013-03-21 16:00:00,29.6,19.6,29.74,West,272,5.0,5.0,66,0.00,,,0.01,Wunderground v.1.15,2013-03-21 20:00:00,
2013-03-21 16:05:00,29.4,19.8,29.74,WSW,246,6.0,6.0,67,0.00,,,0.01,Wunderground v.1.15,2013-03-21 20:05:00,
2013-03-21 16:15:00,29.0,19.4,29.74,SW,235,6.0,10.0,67,0.00,,,0.01,Wunderground v.1.15,2013-03-21 20:15:00,
2013-03-21 16:20:00,28.8,19.9,29.74,WNW,296,7.0,13.0,69,0.00,,,0.01,Wunderground v.1.15,2013-03-21 20:20:00,
2013-03-21 16:30:00,28.4,19.9,29.74,West,262,8.0,8.0,70,0.00,,,0.01,Wunderground v.1.15,2013-03-21 20:30:00,
2013-03-21 16:40:00,28.6,20.7,29.74,WSW,240,6.0,9.0,72,0.00,,,0.01,Wunderground v.1.15,2013-03-21 20:40:00,
2013-03-21 16:50:00,28.5,20.6,29.74,WSW,254,6.0,6.0,72,0.00,,,0.01,Wunderground v.1.15,2013-03-21 20:50:00,
2013-03-21 16:55:00,28.4,20.8,29.74,West,280,6.0,9.0,73,0.00,,,0.01,Wunderground v.1.15,2013-03-21 20:55:00,
2013-03-21 17:05:00,28.2,21.3,29.74,WNW,288,7.0,10.0,75,0.00,,,0.01,Wunderground v.1.15,2013-03-21 21:05:00,
2013-03-21 17:15:00,28.1,21.8,29.73,SW,232,4.0,6.0,77,0.00,,,0.01,Wunderground v.1.15,2013-03-21 21:15:00,
2013-03-21 17:20:00,28.1,21.8,29.73,West,259,4.0,4.0,77,0.00,,,0.01,Wunderground v.1.15,2013-03-21 21:20:00,
2013-03-21 17:30:00,28.1,22.1,29.73,WSW,248,4.0,9.0,78,0.00,,,0.01,Wunderground v.1.15,2013-03-21 21:30:00,
2013-03-21 17:40:00,28.2,21.9,29.73,WSW,242,7.0,7.0,77,0.00,,,0.01,Wunderground v.1.15,2013-03-21 21:40:00,
2013-03-21 17:50:00,28.3,22.0,29.73,West,261,6.0,6.0,77,0.00,,,0.01,Wunderground v.1.15,2013-03-21 21:50:00,
2013-03-21 18:00:00,28.2,22.2,29.73,NNW,334,7.0,12.0,78,0.00,,,0.01,Wunderground v.1.15,2013-03-21 22:00:00,
2013-03-21 18:10:00,27.9,22.5,29.73,West,281,6.0,6.0,80,0.00,,,0.01,Wunderground v.1.15,2013-03-21 22:10:00,
2013-03-21 18:15:00,27.8,22.4,29.73,WSW,237,5.0,7.0,80,0.00,,,0.01,Wunderground v.1.15,2013-03-21 22:15:00,
2013-03-21 18:25:00,27.7,22.6,29.73,WSW,250,5.0,5.0,81,0.00,,,0.01,Wunderground v.1.15,2013-03-21 22:25:00,
2013-03-21 18:35:00,27.6,22.8,29.73,WSW,249,5.0,6.0,82,0.00,,,0.01,Wunderground v.1.15,2013-03-21 22:35:00,
2013-03-21 18:45:00,27.5,23.3,29.73,WSW,246,3.0,4.0,84,0.00,,,0.01,Wunderground v.1.15,2013-03-21 22:45:00,
2013-03-21 18:50:00,27.3,23.1,29.73,WSW,244,4.0,5.0,84,0.00,,,0.01,Wunderground v.1.15,2013-03-21 22:50:00,
2013-03-21 19:00:00,27.1,23.5,29.73,WSW,246,4.0,4.0,86,0.00,,,0.01,Wunderground v.1.15,2013-03-21 23:00:00,
2013-03-21 19:10:00,26.9,23.5,29.73,SW,234,3.0,3.0,87,0.00,,,0.01,Wunderground v.1.15,2013-03-21 23:10:00,
2013-03-21 19:20:00,26.9,23.8,29.73,SW,234,3.0,3.0,88,0.00,,,0.01,Wunderground v.1.15,2013-03-21 23:20:00,
2013-03-21 19:30:00,26.9,23.8,29.73,West,259,3.0,5.0,88,0.00,,,0.01,Wunderground v.1.15,2013-03-21 23:30:00,
2013-03-21 19:40:00,27.0,23.9,29.73,West,274,3.0,3.0,88,0.00,,,0.01,Wunderground v.1.15,2013-03-21 23:40:00,
2013-03-21 19:50:00,27.2,23.8,29.73,West,277,3.0,3.0,87,0.00,,,0.01,Wunderground v.1.15,2013-03-21 23:50:00,
2013-03-21 20:00:00,27.4,23.8,29.73,WSW,249,3.0,3.0,86,0.00,,,0.01,Wunderground v.1.15,2013-03-22 00:00:00,
2013-03-21 20:10:00,27.5,23.6,29.73,WSW,256,3.0,3.0,85,0.00,,,0.01,Wunderground v.1.15,2013-03-22 00:10:00,
2013-03-21 20:20:00,27.6,23.7,29.73,West,277,4.0,4.0,85,0.00,,,0.01,Wunderground v.1.15,2013-03-22 00:20:00,
2013-03-21 20:30:00,27.7,23.5,29.73,WNW,284,4.0,4.0,84,0.00,,,0.01,Wunderground v.1.15,2013-03-22 00:30:00,
2013-03-21 20:35:00,27.6,23.4,29.72,WNW,298,4.0,4.0,84,0.00,,,0.01,Wunderground v.1.15,2013-03-22 00:35:00,
2013-03-21 20:40:00,27.6,23.4,29.72,WNW,294,3.0,3.0,84,0.00,,,0.01,Wunderground v.1.15,2013-03-22 00:40:00,
2013-03-21 20:45:00,27.5,23.3,29.73,WNW,283,3.0,3.0,84,0.00,,,0.01,Wunderground v.1.15,2013-03-22 00:45:00,
2013-03-21 20:55:00,27.4,23.5,29.73,WSW,254,2.0,7.0,85,0.00,,,0.01,Wunderground v.1.15,2013-03-22 00:55:00,
2013-03-21 21:05:00,27.5,23.6,29.73,WSW,253,3.0,3.0,85,0.00,,,0.01,Wunderground v.1.15,2013-03-22 01:05:00,
2013-03-21 21:10:00,27.5,23.6,29.73,WSW,254,3.0,3.0,85,0.00,,,0.01,Wunderground v.1.15,2013-03-22 01:10:00,
2013-03-21 21:20:00,27.7,24.1,29.73,West,268,3.0,3.0,86,0.00,,,0.01,Wunderground v.1.15,2013-03-22 01:20:00,
2013-03-21 21:25:00,27.8,24.2,29.73,WSW,257,3.0,5.0,86,0.00,,,0.01,Wunderground v.1.15,2013-03-22 01:25:00,
2013-03-21 21:35:00,27.8,24.2,29.73,WSW,258,3.0,5.0,86,0.00,,,0.01,Wunderground v.1.15,2013-03-22 01:35:00,
2013-03-21 21:45:00,27.8,24.4,29.73,West,260,3.0,3.0,87,0.00,,,0.01,Wunderground v.1.15,2013-03-22 01:45:00,
2013-03-21 21:50:00,27.7,24.6,29.73,West,261,2.0,2.0,88,0.00,,,0.01,Wunderground v.1.15,2013-03-22 01:50:00,
2013-03-21 22:00:00,27.7,24.6,29.73,WSW,252,3.0,5.0,88,0.00,,,0.01,Wunderground v.1.15,2013-03-22 02:00:00,
2013-03-21 22:05:00,27.7,24.6,29.73,West,260,3.0,5.0,88,0.00,,,0.01,Wunderground v.1.15,2013-03-22 02:05:00,
2013-03-21 22:15:00,27.7,24.6,29.73,West,273,4.0,4.0,88,0.00,,,0.01,Wunderground v.1.15,2013-03-22 02:15:00,
2013-03-21 22:25:00,27.6,24.8,29.73,WSW,238,3.0,5.0,89,0.00,,,0.01,Wunderground v.1.15,2013-03-22 02:25:00,
2013-03-21 22:35:00,27.5,24.4,29.73,West,277,5.0,5.0,88,0.00,,,0.01,Wunderground v.1.15,2013-03-22 02:35:00,
2013-03-21 22:45:00,27.5,24.1,29.73,West,281,6.0,6.0,87,0.00,,,0.01,Wunderground v.1.15,2013-03-22 02:45:00,
2013-03-21 22:55:00,27.4,24.0,29.73,West,275,6.0,7.0,87,0.00,,,0.01,Wunderground v.1.15,2013-03-22 02:55:00,
2013-03-21 23:00:00,27.4,23.8,29.73,WSW,256,6.0,6.0,86,0.00,,,0.01,Wunderground v.1.15,2013-03-22 03:00:00,
2013-03-21 23:10:00,27.4,23.5,29.74,WNW,298,6.0,6.0,85,0.00,,,0.01,Wunderground v.1.15,2013-03-22 03:10:00,
2013-03-21 23:15:00,27.4,23.5,29.74,WNW,291,5.0,10.0,85,0.00,,,0.01,Wunderground v.1.15,2013-03-22 03:15:00,
2013-03-21 23:25:00,27.4,23.2,29.74,WNW,291,7.0,10.0,84,0.00,,,0.01,Wunderground v.1.15,2013-03-22 03:25:00,
2013-03-21 23:35:00,27.4,23.2,29.74,West,269,5.0,6.0,84,0.00,,,0.01,Wunderground v.1.15,2013-03-22 03:35:00,
2013-03-21 23:45:00,27.4,23.2,29.75,WNW,292,5.0,7.0,84,0.00,,,0.01,Wunderground v.1.15,2013-03-22 03:45:00,
2013-03-21 23:55:00,27.2,23.3,29.75,WNW,286,7.0,7.0,85,0.00,,,0.01,Wunderground v.1.15,2013-03-22 03:55:00,